Location: Pony
(45.6596°N, 111.8933°W)
Time: 06:54:17
(UTC+00:00)

Tiangong - Visible Passes

Search period start: 24 January 2022 00:00
Search period end: 03 February 2022 00:00
Orbit: 383 x 386 km, 41.5° (Epoch: 23 January)

Date Brightness Start Highest point End Pass type
(mag) Time Alt. Az. Time Alt. Az. Time Alt. Az.
28 Jan 3.2 02:03:56 10° SSW 02:05:55 16° SSE 02:05:55 16° SSE visible
29 Jan 3.7 01:05:42 10° SSE 01:06:26 11° SSE 01:07:09 10° SE visible
29 Jan 3.3 02:39:50 10° SW 02:41:18 21° SSW 02:41:18 21° SSW visible
30 Jan 2.8 01:40:26 10° SW 01:42:58 22° SSE 01:44:26 16° ESE visible
30 Jan 4.5 03:16:26 10° WSW 03:16:38 11° WSW 03:16:38 11° WSW visible
31 Jan 2.1 02:16:45 10° WSW 02:19:40 35° S 02:19:42 35° S visible
01 Feb 2.5 01:17:06 10° SW 01:19:55 29° SSE 01:22:43 10° ESE visible
01 Feb 3.4 02:53:26 10° WSW 02:54:56 23° WSW 02:54:56 23° WSW visible
02 Feb 2.1 01:53:37 10° WSW 01:56:36 38° S 01:57:57 24° SE visible
